Location: Whispering Pines Observatory
(39.4020°N, 104.7430°W)
Time: 09:20:24
(UTC-06:00)

MOS 1 Rocket - Visible Passes

Search period start: 24 July 2014 00:00
Search period end: 03 August 2014 00:00
Orbit: 616 x 835 km, 97.5° (Epoch: 23 July)

Date Brightness Start Highest point End Pass type
(mag) Time Alt. Az. Time Alt. Az. Time Alt. Az.
24 Jul 4.2 21:43:18 22° ESE 21:45:06 30° ENE 21:48:57 10° N visible
24 Jul 5.0 23:22:40 20° WSW 23:23:27 21° W 23:26:50 10° NW visible
25 Jul 3.1 22:33:50 50° S 22:34:54 75° WSW 22:39:21 10° NNW visible
26 Jul 4.1 21:45:00 23° ESE 21:46:44 32° ENE 21:50:41 10° N visible
26 Jul 5.0 23:24:23 20° WSW 23:25:07 20° W 23:28:25 10° NW visible
27 Jul 5.3 20:58:02 10° ENE 20:58:56 11° ENE 20:59:50 10° NE visible
27 Jul 3.2 22:35:33 51° SSW 22:36:33 70° W 22:41:02 10° NNW visible
28 Jul 4.0 21:46:44 25° ESE 21:48:21 34° ENE 21:52:26 10° N visible
28 Jul 5.1 23:26:06 19° WSW 23:26:47 19° W 23:30:01 10° NW visible
29 Jul 5.3 20:59:07 10° E 21:00:33 11° ENE 21:02:01 10° NE visible
29 Jul 3.3 22:37:16 51° SSW 22:38:11 66° W 22:42:43 10° NNW visible
30 Jul 3.9 21:48:27 28° ESE 21:49:59 36° ENE 21:54:10 10° N visible
30 Jul 5.2 23:27:49 18° WSW 23:28:28 19° W 23:31:37 10° NW visible
31 Jul 5.2 21:00:21 10° E 21:02:10 12° ENE 21:04:02 10° NE visible
31 Jul 3.4 22:39:00 51° SSW 22:39:50 62° W 22:44:24 10° NNW visible
01 Aug 3.8 21:50:10 30° ESE 21:51:37 39° ENE 21:55:55 10° N visible
01 Aug 5.3 23:29:33 17° W 23:30:08 18° W 23:33:13 10° NW visible
02 Aug 5.2 21:01:39 10° E 21:03:48 13° ENE 21:06:00 10° NE visible
02 Aug 3.5 22:40:43 50° SW 22:41:29 58° W 22:46:05 10° NNW visible
